CSZ9408 ZUUU-ZGSZ

Flight info

Callsign CSZ9408
Flight time 2h 21m
Altitude 35100
Route IDBR9W/02L IDBOR B330 KWE W181 DUDIT A599 POU W7 SAREX DCT
Aircraft A320/M-SDE3FGHIRWY/LB1

Departure

Time 2026-05-08 11:12
Airport Chengdu Shuangliu International Airport (ZUUU)

Arrival

Time 2026-05-08 13:33
Airport Shenzhen Bao'an International Airport (ZGSZ)
Time Latitude Longitude Altitude Speed Heading
2026-05-08 10:42 30.57238 103.95179 1689 ft 0 kts 57°
2026-05-08 11:02 30.57236 103.95175 1689 ft 2 kts 57°
2026-05-08 11:02 30.57227 103.95161 1689 ft 2 kts 51°
2026-05-08 11:03 30.57217 103.95149 1689 ft 2 kts 46°
2026-05-08 11:03 30.57206 103.95136 1689 ft 2 kts 41°
2026-05-08 11:03 30.57195 103.95125 1689 ft 2 kts 36°
2026-05-08 11:03 30.57183 103.95115 1689 ft 2 kts 32°
2026-05-08 11:04 30.57170 103.95106 1689 ft 2 kts 27°
2026-05-08 11:04 30.57156 103.95100 1689 ft 2 kts 22°
2026-05-08 11:04 30.57145 103.95094 1689 ft 0 kts 18°
2026-05-08 11:04 30.57142 103.95094 1689 ft 0 kts 17°
2026-05-08 11:07 30.57169 103.95099 1689 ft 7 kts 354°
2026-05-08 11:08 30.57210 103.95034 1689 ft 13 kts 291°
2026-05-08 11:08 30.57251 103.94916 1689 ft 17 kts 291°
2026-05-08 11:08 30.57294 103.94783 1689 ft 15 kts 275°
2026-05-08 11:08 30.57221 103.94710 1689 ft 15 kts 201°
2026-05-08 11:09 30.57119 103.94662 1689 ft 16 kts 201°
2026-05-08 11:09 30.57010 103.94614 1689 ft 16 kts 197°
2026-05-08 11:09 30.56895 103.94576 1689 ft 17 kts 199°
2026-05-08 11:09 30.56778 103.94524 1689 ft 18 kts 202°
2026-05-08 11:10 30.56650 103.94464 1689 ft 20 kts 202°
2026-05-08 11:10 30.56511 103.94398 1689 ft 22 kts 202°
2026-05-08 11:10 30.56369 103.94333 1689 ft 21 kts 202°
2026-05-08 11:10 30.56274 103.94255 1689 ft 14 kts 269°
2026-05-08 11:11 30.56310 103.94138 1689 ft 15 kts 292°
2026-05-08 11:11 30.56365 103.94031 1689 ft 15 kts 335°
2026-05-08 11:11 30.56472 103.94058 1689 ft 17 kts 22°
2026-05-08 11:11 30.56732 103.94179 1689 ft 74 kts 22°
2026-05-08 11:12 30.57415 103.94498 1690 ft 135 kts 22°
2026-05-08 11:12 30.58465 103.94984 1721 ft 182 kts 22°
2026-05-08 11:12 30.59689 103.95554 2189 ft 191 kts 23°
2026-05-08 11:12 30.60929 103.96127 2811 ft 197 kts 23°
2026-05-08 11:13 30.62207 103.96695 3519 ft 198 kts 21°
2026-05-08 11:13 30.63503 103.97246 4047 ft 203 kts 21°
2026-05-08 11:13 30.64894 103.97822 4381 ft 218 kts 21°
2026-05-08 11:13 30.66342 103.98495 4699 ft 235 kts 24°
2026-05-08 11:14 30.67878 103.99316 5035 ft 252 kts 27°
2026-05-08 11:14 30.69374 104.00512 5444 ft 266 kts 46°
2026-05-08 11:14 30.70416 104.02306 5980 ft 276 kts 64°
2026-05-08 11:14 30.71211 104.04365 6583 ft 284 kts 65°
2026-05-08 11:15 30.72065 104.06383 7582 ft 276 kts 62°
2026-05-08 11:15 30.72947 104.08349 8391 ft 275 kts 62°
2026-05-08 11:15 30.73841 104.10312 9096 ft 279 kts 61°
2026-05-08 11:15 30.74767 104.12339 9850 ft 282 kts 61°
2026-05-08 11:16 30.75638 104.14362 10553 ft 285 kts 69°
2026-05-08 11:16 30.75883 104.16653 11223 ft 292 kts 95°
2026-05-08 11:16 30.75216 104.18912 11902 ft 299 kts 120°
2026-05-08 11:16 30.73759 104.20655 12495 ft 309 kts 147°
2026-05-08 11:17 30.71730 104.21516 13045 ft 317 kts 174°
2026-05-08 11:17 30.69536 104.21231 13620 ft 320 kts 199°
2026-05-08 11:17 30.67423 104.20370 14243 ft 323 kts 200°
2026-05-08 11:17 30.65285 104.19504 14869 ft 325 kts 200°
2026-05-08 11:18 30.63136 104.18655 15477 ft 327 kts 200°
2026-05-08 11:18 30.60979 104.17818 16074 ft 328 kts 200°
2026-05-08 11:18 30.58800 104.16979 16676 ft 330 kts 200°
2026-05-08 11:18 30.56600 104.16135 17255 ft 331 kts 200°
2026-05-08 11:19 30.54417 104.15299 17787 ft 333 kts 200°
2026-05-08 11:19 30.52189 104.14451 18325 ft 335 kts 200°
2026-05-08 11:19 30.49961 104.13603 18846 ft 337 kts 200°
2026-05-08 11:19 30.47739 104.12753 19355 ft 338 kts 202°
2026-05-08 11:20 30.45502 104.11770 19824 ft 341 kts 205°
2026-05-08 11:20 30.43262 104.10722 20030 ft 353 kts 205°
2026-05-08 11:20 30.40901 104.09613 20238 ft 365 kts 205°
2026-05-08 11:20 30.38512 104.08494 20437 ft 376 kts 205°
2026-05-08 11:21 30.36037 104.07337 20630 ft 386 kts 205°
2026-05-08 11:21 30.33479 104.06144 20807 ft 397 kts 205°
2026-05-08 11:21 30.30891 104.04952 20981 ft 407 kts 202°
2026-05-08 11:21 30.28052 104.04323 21191 ft 421 kts 183°
2026-05-08 11:22 30.25243 104.04816 21567 ft 429 kts 164°
2026-05-08 11:22 30.23083 104.05996 21885 ft 435 kts 149°
2026-05-08 11:22 30.20644 104.08131 22296 ft 438 kts 144°
2026-05-08 11:22 30.18207 104.10362 22614 ft 442 kts 144°
2026-05-08 11:23 30.15803 104.12559 22941 ft 445 kts 144°
2026-05-08 11:23 30.13321 104.14809 23295 ft 448 kts 145°
2026-05-08 11:23 30.10862 104.17027 23638 ft 450 kts 145°
2026-05-08 11:23 30.08383 104.19254 23969 ft 453 kts 146°
2026-05-08 11:24 30.05884 104.21493 24303 ft 456 kts 146°
2026-05-08 11:24 30.03356 104.23754 24641 ft 458 kts 146°
2026-05-08 11:24 30.00812 104.26028 24966 ft 461 kts 146°
2026-05-08 11:24 29.98249 104.28317 25272 ft 464 kts 146°
2026-05-08 11:25 29.95670 104.30620 25581 ft 467 kts 147°
2026-05-08 11:25 29.93115 104.32895 25886 ft 469 kts 147°
2026-05-08 11:25 29.90504 104.35223 26166 ft 472 kts 147°
2026-05-08 11:25 29.87864 104.37572 26460 ft 475 kts 147°
2026-05-08 11:26 29.85249 104.39895 26739 ft 478 kts 147°
2026-05-08 11:26 29.82595 104.42255 27012 ft 480 kts 147°
2026-05-08 11:26 29.79927 104.44626 27262 ft 483 kts 147°
2026-05-08 11:26 29.77244 104.47008 27506 ft 486 kts 148°
2026-05-08 11:27 29.74553 104.49397 27778 ft 488 kts 148°
2026-05-08 11:27 29.71853 104.51791 28042 ft 490 kts 148°
2026-05-08 11:27 29.69160 104.54176 28252 ft 493 kts 148°
2026-05-08 11:27 29.66429 104.56595 28478 ft 496 kts 148°
2026-05-08 11:28 29.63679 104.59029 28702 ft 498 kts 149°
2026-05-08 11:28 29.60910 104.61478 28946 ft 500 kts 149°
2026-05-08 11:28 29.58126 104.63940 29202 ft 501 kts 149°
2026-05-08 11:28 29.55350 104.66393 29436 ft 502 kts 150°
2026-05-08 11:29 29.52558 104.68858 29683 ft 502 kts 150°
2026-05-08 11:29 29.49785 104.71307 29949 ft 502 kts 150°
2026-05-08 11:29 29.46954 104.73804 30213 ft 502 kts 150°
2026-05-08 11:29 29.44173 104.76256 30471 ft 502 kts 150°
2026-05-08 11:30 29.41379 104.78716 30717 ft 502 kts 151°
2026-05-08 11:30 29.38573 104.81179 30948 ft 502 kts 152°
2026-05-08 11:30 29.35717 104.83500 31164 ft 499 kts 155°
2026-05-08 11:30 29.32770 104.85609 31384 ft 495 kts 159°
2026-05-08 11:31 29.29722 104.87514 31611 ft 490 kts 163°
2026-05-08 11:31 29.26645 104.89172 31857 ft 485 kts 166°
2026-05-08 11:31 29.23539 104.90733 32108 ft 484 kts 167°
2026-05-08 11:31 29.20436 104.92285 32359 ft 484 kts 167°
2026-05-08 11:32 29.17331 104.93842 32598 ft 484 kts 167°
2026-05-08 11:32 29.14240 104.95397 32849 ft 483 kts 167°
2026-05-08 11:32 29.11113 104.96974 33077 ft 483 kts 167°
2026-05-08 11:32 29.08003 104.98543 33326 ft 483 kts 167°
2026-05-08 11:33 29.04937 105.00091 33570 ft 483 kts 167°
2026-05-08 11:33 29.01824 105.01662 33768 ft 483 kts 167°
2026-05-08 11:33 28.98698 105.03241 33940 ft 484 kts 167°
2026-05-08 11:33 28.95575 105.04813 34124 ft 485 kts 167°
2026-05-08 11:34 28.92486 105.06363 34260 ft 486 kts 167°
2026-05-08 11:34 28.89327 105.07942 34413 ft 487 kts 167°
2026-05-08 11:34 28.86210 105.09500 34581 ft 488 kts 167°
2026-05-08 11:34 28.83079 105.11066 34750 ft 488 kts 167°
2026-05-08 11:35 28.79933 105.12638 34914 ft 489 kts 167°
2026-05-08 11:35 28.76818 105.14297 35087 ft 493 kts 163°
2026-05-08 11:35 28.73706 105.16145 35242 ft 496 kts 162°
2026-05-08 11:36 28.67588 105.19851 35260 ft 498 kts 162°
2026-05-08 11:36 28.61445 105.23578 35265 ft 497 kts 162°
2026-05-08 11:37 28.55304 105.27295 35269 ft 497 kts 162°
2026-05-08 11:37 28.49158 105.31007 35276 ft 496 kts 162°
2026-05-08 11:38 28.42950 105.34747 35280 ft 497 kts 162°
2026-05-08 11:38 28.36804 105.38448 35288 ft 498 kts 162°
2026-05-08 11:39 28.30631 105.42162 35283 ft 498 kts 162°
2026-05-08 11:39 28.24480 105.45860 35294 ft 497 kts 162°
2026-05-08 11:40 28.18287 105.49581 35305 ft 496 kts 162°
2026-05-08 11:40 28.12147 105.53182 35301 ft 492 kts 165°
2026-05-08 11:41 28.05781 105.56110 35304 ft 484 kts 172°
2026-05-08 11:41 27.99287 105.58162 35301 ft 475 kts 178°
2026-05-08 11:42 27.92794 105.59419 35303 ft 468 kts 183°
2026-05-08 11:42 27.86245 105.60532 35303 ft 474 kts 178°
2026-05-08 11:43 27.79795 105.62481 35301 ft 484 kts 171°
2026-05-08 11:43 27.73414 105.65347 35301 ft 493 kts 164°
2026-05-08 11:44 27.67211 105.68966 35305 ft 495 kts 163°
2026-05-08 11:44 27.60974 105.72390 35314 ft 493 kts 163°
2026-05-08 11:45 27.54757 105.75751 35326 ft 494 kts 163°
2026-05-08 11:45 27.48532 105.79112 35332 ft 494 kts 163°
2026-05-08 11:46 27.42307 105.82471 35335 ft 493 kts 163°
2026-05-08 11:46 27.36086 105.85823 35335 ft 494 kts 163°
2026-05-08 11:47 27.29847 105.89182 35332 ft 493 kts 163°
2026-05-08 11:47 27.23600 105.92544 35337 ft 493 kts 163°
2026-05-08 11:48 27.17361 105.95896 35338 ft 492 kts 163°
2026-05-08 11:48 27.11171 105.99316 35345 ft 497 kts 159°
2026-05-08 11:49 27.05323 106.03646 35336 ft 509 kts 149°
2026-05-08 11:49 27.00085 106.09109 35330 ft 520 kts 138°
2026-05-08 11:50 26.95546 106.15501 35325 ft 525 kts 132°
2026-05-08 11:50 26.91182 106.22103 35327 ft 525 kts 132°
2026-05-08 11:51 26.86785 106.28680 35325 ft 524 kts 132°
2026-05-08 11:51 26.82410 106.35168 35327 ft 522 kts 133°
2026-05-08 11:52 26.78009 106.41670 35323 ft 522 kts 132°
2026-05-08 11:52 26.73629 106.48127 35321 ft 522 kts 132°
2026-05-08 11:53 26.69259 106.54571 35321 ft 521 kts 132°
2026-05-08 11:53 26.64861 106.61042 35323 ft 521 kts 132°
2026-05-08 11:54 26.60492 106.67470 35322 ft 521 kts 133°
2026-05-08 11:54 26.56103 106.73917 35328 ft 520 kts 133°
2026-05-08 11:55 26.51548 106.80196 35333 ft 515 kts 138°
2026-05-08 11:55 26.46555 106.85841 35328 ft 512 kts 142°
2026-05-08 11:56 26.41450 106.91407 35323 ft 513 kts 141°
2026-05-08 11:56 26.36387 106.96957 35316 ft 513 kts 141°
2026-05-08 11:57 26.31284 107.02563 35316 ft 513 kts 141°
2026-05-08 11:57 26.26223 107.08106 35313 ft 513 kts 141°
2026-05-08 11:58 26.21123 107.13694 35307 ft 513 kts 141°
2026-05-08 11:58 26.16022 107.19290 35299 ft 513 kts 141°
2026-05-08 11:59 26.08439 107.27598 35288 ft 513 kts 141°
2026-05-08 11:59 26.03346 107.33169 35282 ft 513 kts 141°
2026-05-08 12:00 25.98256 107.38731 35277 ft 513 kts 141°
2026-05-08 12:00 25.93144 107.44306 35275 ft 514 kts 141°
2026-05-08 12:01 25.88049 107.49861 35270 ft 512 kts 141°
2026-05-08 12:01 25.82976 107.55389 35269 ft 511 kts 141°
2026-05-08 12:02 25.77867 107.60946 35269 ft 511 kts 140°
2026-05-08 12:02 25.72787 107.66469 35262 ft 510 kts 141°
2026-05-08 12:03 25.67744 107.71960 35263 ft 510 kts 141°
2026-05-08 12:03 25.62690 107.77497 35270 ft 510 kts 141°
2026-05-08 12:04 25.57652 107.83019 35270 ft 509 kts 141°
2026-05-08 12:04 25.52606 107.88519 35269 ft 509 kts 142°
2026-05-08 12:05 25.47060 107.93164 35256 ft 495 kts 156°
2026-05-08 12:05 25.40853 107.96239 35253 ft 481 kts 170°
2026-05-08 12:06 25.34412 107.97716 35256 ft 468 kts 181°
2026-05-08 12:06 25.27890 107.98486 35251 ft 468 kts 181°
2026-05-08 12:07 25.21413 107.99242 35240 ft 468 kts 181°
2026-05-08 12:07 25.14914 108.00022 35224 ft 469 kts 181°
2026-05-08 12:08 25.08422 108.00809 35212 ft 468 kts 181°
2026-05-08 12:08 25.01927 108.01601 35207 ft 468 kts 181°
2026-05-08 12:09 24.95466 108.02388 35200 ft 468 kts 181°
2026-05-08 12:09 24.88954 108.03181 35197 ft 469 kts 180°
2026-05-08 12:10 24.82442 108.03973 35197 ft 469 kts 180°
2026-05-08 12:10 24.75954 108.04762 35194 ft 468 kts 180°
2026-05-08 12:11 24.69443 108.05553 35197 ft 469 kts 180°
2026-05-08 12:11 24.62958 108.06342 35188 ft 469 kts 180°
2026-05-08 12:12 24.56459 108.07132 35188 ft 469 kts 180°
2026-05-08 12:12 24.49925 108.07918 35190 ft 470 kts 180°
2026-05-08 12:13 24.43437 108.08704 35188 ft 469 kts 180°
2026-05-08 12:13 24.36925 108.09492 35178 ft 470 kts 180°
2026-05-08 12:14 24.30426 108.10281 35176 ft 470 kts 180°
2026-05-08 12:14 24.23904 108.11074 35173 ft 470 kts 180°
2026-05-08 12:15 24.17373 108.11866 35167 ft 470 kts 180°
2026-05-08 12:15 24.10830 108.12662 35167 ft 470 kts 180°
2026-05-08 12:16 24.04340 108.13450 35166 ft 470 kts 180°
2026-05-08 12:16 23.97818 108.14241 35164 ft 469 kts 180°
2026-05-08 12:17 23.91329 108.15325 35146 ft 480 kts 167°
2026-05-08 12:17 23.88197 108.16858 35153 ft 491 kts 153°
2026-05-08 12:17 23.85482 108.19145 35153 ft 501 kts 139°
2026-05-08 12:18 23.83283 108.22127 35154 ft 509 kts 124°
2026-05-08 12:18 23.81775 108.25658 35159 ft 513 kts 108°
2026-05-08 12:18 23.81084 108.29482 35164 ft 515 kts 95°
2026-05-08 12:18 23.80873 108.33344 35165 ft 515 kts 92°
2026-05-08 12:19 23.80569 108.41120 35167 ft 515 kts 92°
2026-05-08 12:19 23.80189 108.48937 35163 ft 514 kts 93°
2026-05-08 12:20 23.79757 108.56685 35166 ft 515 kts 93°
2026-05-08 12:20 23.79304 108.64503 35165 ft 514 kts 93°
2026-05-08 12:21 23.78849 108.72287 35163 ft 514 kts 94°
2026-05-08 12:21 23.78389 108.80077 35160 ft 514 kts 94°
2026-05-08 12:22 23.77930 108.87846 35153 ft 513 kts 94°
2026-05-08 12:22 23.77466 108.95612 35146 ft 512 kts 94°
2026-05-08 12:23 23.76997 109.03413 35139 ft 512 kts 94°
2026-05-08 12:23 23.76512 109.11152 35136 ft 513 kts 95°
2026-05-08 12:24 23.75492 109.18800 35135 ft 511 kts 103°
2026-05-08 12:24 23.73964 109.26349 35133 ft 512 kts 103°
2026-05-08 12:25 23.72403 109.33927 35133 ft 511 kts 103°
2026-05-08 12:25 23.70859 109.41467 35130 ft 512 kts 103°
2026-05-08 12:26 23.69308 109.49075 35128 ft 512 kts 103°
2026-05-08 12:26 23.67773 109.56589 35128 ft 512 kts 103°
2026-05-08 12:27 23.66220 109.64178 35130 ft 512 kts 103°
2026-05-08 12:27 23.64671 109.71735 35132 ft 511 kts 103°
2026-05-08 12:28 23.63119 109.79271 35137 ft 510 kts 103°
2026-05-08 12:28 23.61567 109.86794 35139 ft 511 kts 103°
2026-05-08 12:29 23.60007 109.94336 35142 ft 510 kts 103°
2026-05-08 12:29 23.58442 110.01884 35144 ft 510 kts 103°
2026-05-08 12:30 23.56881 110.09403 35138 ft 510 kts 103°
2026-05-08 12:30 23.55320 110.16902 35132 ft 509 kts 103°
2026-05-08 12:31 23.53746 110.24457 35118 ft 509 kts 103°
2026-05-08 12:31 23.52179 110.31950 35115 ft 510 kts 103°
2026-05-08 12:32 23.50612 110.39459 35110 ft 510 kts 103°
2026-05-08 12:32 23.49079 110.47002 35110 ft 510 kts 103°
2026-05-08 12:33 23.47553 110.54522 35111 ft 510 kts 103°
2026-05-08 12:33 23.46022 110.62047 35114 ft 509 kts 103°
2026-05-08 12:34 23.44486 110.69569 35111 ft 509 kts 103°
2026-05-08 12:34 23.42922 110.77085 35110 ft 509 kts 103°
2026-05-08 12:35 23.41328 110.84599 35114 ft 509 kts 103°
2026-05-08 12:35 23.39750 110.92052 35111 ft 509 kts 103°
2026-05-08 12:36 23.38158 110.99571 35109 ft 508 kts 103°
2026-05-08 12:36 23.36582 111.07026 35105 ft 508 kts 103°
2026-05-08 12:37 23.34985 111.14534 35101 ft 507 kts 103°
2026-05-08 12:37 23.33439 111.21990 35101 ft 507 kts 102°
2026-05-08 12:38 23.31912 111.29495 35099 ft 508 kts 102°
2026-05-08 12:38 23.30392 111.36935 35101 ft 508 kts 103°
2026-05-08 12:39 23.28854 111.44439 35015 ft 509 kts 103°
2026-05-08 12:39 23.28088 111.48167 34721 ft 506 kts 103°
2026-05-08 12:39 23.27321 111.51897 34434 ft 503 kts 103°
2026-05-08 12:40 23.26552 111.55577 34150 ft 501 kts 103°
2026-05-08 12:40 23.25772 111.59259 33863 ft 499 kts 103°
2026-05-08 12:40 23.24989 111.62936 33576 ft 499 kts 103°
2026-05-08 12:40 23.24212 111.66597 33295 ft 498 kts 103°
2026-05-08 12:41 23.23437 111.70256 33009 ft 499 kts 103°
2026-05-08 12:41 23.22664 111.73908 32727 ft 499 kts 103°
2026-05-08 12:41 23.21878 111.77618 32462 ft 500 kts 103°
2026-05-08 12:41 23.21104 111.81261 32202 ft 500 kts 103°
2026-05-08 12:42 23.20318 111.84971 31940 ft 500 kts 103°
2026-05-08 12:42 23.19547 111.88649 31680 ft 500 kts 103°
2026-05-08 12:42 23.18782 111.92329 31418 ft 501 kts 103°
2026-05-08 12:42 23.18014 111.96018 31156 ft 500 kts 103°
2026-05-08 12:43 23.17250 111.99689 30897 ft 500 kts 103°
2026-05-08 12:43 23.16481 112.03378 30633 ft 499 kts 103°
2026-05-08 12:43 23.15714 112.07058 30375 ft 498 kts 103°
2026-05-08 12:43 23.14943 112.10749 30114 ft 498 kts 103°
2026-05-08 12:44 23.14185 112.14369 29855 ft 497 kts 103°
2026-05-08 12:44 23.13411 112.18070 29593 ft 496 kts 103°
2026-05-08 12:44 23.12658 112.21661 29341 ft 496 kts 103°
2026-05-08 12:44 23.11888 112.25327 29085 ft 497 kts 103°
2026-05-08 12:45 23.11115 112.29009 28821 ft 495 kts 103°
2026-05-08 12:45 23.10353 112.32638 28563 ft 492 kts 104°
2026-05-08 12:45 23.09601 112.36213 28327 ft 489 kts 103°
2026-05-08 12:45 23.08838 112.39832 28087 ft 488 kts 103°
2026-05-08 12:46 23.08088 112.43380 27847 ft 487 kts 103°
2026-05-08 12:46 23.07393 112.46979 27603 ft 484 kts 100°
2026-05-08 12:46 23.06882 112.50581 27365 ft 482 kts 97°
2026-05-08 12:46 23.06556 112.54230 27127 ft 481 kts 94°
2026-05-08 12:47 23.06313 112.57816 26886 ft 479 kts 93°
2026-05-08 12:47 23.06082 112.61406 26648 ft 478 kts 93°
2026-05-08 12:47 23.05849 112.65019 26406 ft 476 kts 94°
2026-05-08 12:47 23.05617 112.68544 26170 ft 474 kts 94°
2026-05-08 12:48 23.05380 112.72115 25930 ft 473 kts 94°
2026-05-08 12:48 23.05138 112.75696 25688 ft 471 kts 94°
2026-05-08 12:48 23.04894 112.79288 25445 ft 470 kts 93°
2026-05-08 12:48 23.04654 112.82800 25206 ft 468 kts 93°
2026-05-08 12:49 23.04412 112.86340 24965 ft 466 kts 93°
2026-05-08 12:49 23.04171 112.89840 24726 ft 465 kts 93°
2026-05-08 12:49 23.03933 112.93295 24488 ft 462 kts 93°
2026-05-08 12:49 23.03691 112.96799 24240 ft 460 kts 92°
2026-05-08 12:50 23.03452 113.00247 23953 ft 457 kts 92°
2026-05-08 12:50 23.03217 113.03647 23623 ft 455 kts 92°
2026-05-08 12:50 23.02979 113.07079 23201 ft 452 kts 92°
2026-05-08 12:50 23.02743 113.10438 22725 ft 448 kts 92°
2026-05-08 12:51 23.02508 113.13768 22225 ft 444 kts 92°
2026-05-08 12:51 23.01372 113.20288 21189 ft 439 kts 109°
2026-05-08 12:51 23.00162 113.23305 20677 ft 436 kts 116°
2026-05-08 12:52 22.98784 113.26198 20163 ft 433 kts 117°
2026-05-08 12:52 22.95977 113.31951 19130 ft 426 kts 117°
2026-05-08 12:52 22.94613 113.34780 18624 ft 422 kts 117°
2026-05-08 12:53 22.93258 113.37612 18122 ft 419 kts 117°
2026-05-08 12:53 22.91925 113.40404 17627 ft 415 kts 118°
2026-05-08 12:53 22.90612 113.43150 17143 ft 412 kts 118°
2026-05-08 12:53 22.89109 113.45776 16614 ft 408 kts 132°
2026-05-08 12:54 22.86896 113.47620 16101 ft 400 kts 156°
2026-05-08 12:54 22.84239 113.48359 15577 ft 392 kts 179°
2026-05-08 12:54 22.81551 113.48271 15090 ft 387 kts 185°
2026-05-08 12:54 22.78859 113.48116 14574 ft 385 kts 184°
2026-05-08 12:55 22.76203 113.47784 14022 ft 381 kts 198°
2026-05-08 12:55 22.73893 113.46474 13502 ft 374 kts 221°
2026-05-08 12:55 22.72244 113.44344 12925 ft 370 kts 242°
2026-05-08 12:55 22.71226 113.41827 12407 ft 367 kts 248°
2026-05-08 12:56 22.70256 113.39284 11884 ft 364 kts 248°
2026-05-08 12:56 22.69285 113.36777 11377 ft 361 kts 247°
2026-05-08 12:56 22.68318 113.34309 11005 ft 353 kts 247°
2026-05-08 12:56 22.67368 113.31897 10717 ft 342 kts 247°
2026-05-08 12:57 22.66454 113.29585 10520 ft 330 kts 247°
2026-05-08 12:57 22.65558 113.27326 10340 ft 318 kts 247°
2026-05-08 12:57 22.64698 113.25157 10180 ft 307 kts 247°
2026-05-08 12:57 22.63873 113.23080 10036 ft 296 kts 247°
2026-05-08 12:58 22.63087 113.21104 9759 ft 291 kts 247°
2026-05-08 12:58 22.62289 113.19096 9476 ft 287 kts 247°
2026-05-08 12:58 22.61517 113.17155 9197 ft 282 kts 247°
2026-05-08 12:58 22.60741 113.15202 8920 ft 278 kts 247°
2026-05-08 12:59 22.59975 113.13277 8648 ft 273 kts 247°
2026-05-08 12:59 22.59246 113.11445 8347 ft 264 kts 247°
2026-05-08 12:59 22.58489 113.09655 7967 ft 261 kts 237°
2026-05-08 12:59 22.57168 113.08324 7878 ft 263 kts 204°
2026-05-08 13:00 22.55375 113.07916 7885 ft 263 kts 180°
2026-05-08 13:00 22.53540 113.07941 7882 ft 265 kts 179°
2026-05-08 13:00 22.51695 113.07958 7880 ft 265 kts 179°
2026-05-08 13:00 22.49820 113.07972 7880 ft 265 kts 177°
2026-05-08 13:01 22.47977 113.08157 7881 ft 265 kts 171°
2026-05-08 13:01 22.46154 113.08530 7883 ft 265 kts 168°
2026-05-08 13:01 22.44345 113.08939 7883 ft 265 kts 168°
2026-05-08 13:01 22.42518 113.09354 7882 ft 265 kts 168°
2026-05-08 13:02 22.40717 113.09759 7883 ft 265 kts 167°
2026-05-08 13:02 22.38920 113.10281 7884 ft 265 kts 161°
2026-05-08 13:02 22.37220 113.11012 7887 ft 264 kts 156°
2026-05-08 13:02 22.35534 113.11831 7888 ft 264 kts 155°
2026-05-08 13:03 22.33866 113.12651 7889 ft 264 kts 155°
2026-05-08 13:03 22.32180 113.13478 7890 ft 264 kts 155°
2026-05-08 13:03 22.30531 113.14329 7891 ft 264 kts 150°
2026-05-08 13:03 22.28966 113.15384 7895 ft 263 kts 144°
2026-05-08 13:04 22.27484 113.16562 7898 ft 264 kts 143°
2026-05-08 13:04 22.26004 113.17767 7901 ft 264 kts 142°
2026-05-08 13:04 22.24595 113.19003 7897 ft 264 kts 131°
2026-05-08 13:04 22.23786 113.20764 7894 ft 264 kts 97°
2026-05-08 13:05 22.23958 113.22697 7899 ft 263 kts 67°
2026-05-08 13:05 22.24998 113.24331 7906 ft 262 kts 45°
2026-05-08 13:05 22.26287 113.25723 7901 ft 262 kts 45°
2026-05-08 13:05 22.27558 113.27119 7896 ft 262 kts 45°
2026-05-08 13:06 22.28835 113.28542 7893 ft 262 kts 46°
2026-05-08 13:06 22.30096 113.29958 7890 ft 261 kts 46°
2026-05-08 13:06 22.31337 113.31358 7906 ft 254 kts 46°
2026-05-08 13:06 22.32547 113.32728 7896 ft 250 kts 46°
2026-05-08 13:07 22.33758 113.34101 7892 ft 250 kts 46°
2026-05-08 13:07 22.34951 113.35455 7891 ft 250 kts 46°
2026-05-08 13:07 22.36152 113.36818 7888 ft 250 kts 46°
2026-05-08 13:07 22.37355 113.38184 7884 ft 250 kts 46°
2026-05-08 13:08 22.38561 113.39555 7883 ft 250 kts 46°
2026-05-08 13:08 22.39771 113.40930 7879 ft 251 kts 46°
2026-05-08 13:08 22.40960 113.42281 7879 ft 251 kts 46°
2026-05-08 13:08 22.42165 113.43652 7878 ft 251 kts 46°
2026-05-08 13:09 22.43370 113.45022 7877 ft 251 kts 46°
2026-05-08 13:09 22.44585 113.46403 7878 ft 250 kts 46°
2026-05-08 13:09 22.45776 113.47757 7892 ft 247 kts 46°
2026-05-08 13:09 22.46939 113.49082 7862 ft 234 kts 46°
2026-05-08 13:10 22.48059 113.50359 7867 ft 232 kts 46°
2026-05-08 13:10 22.49168 113.51623 7874 ft 233 kts 46°
2026-05-08 13:10 22.50292 113.52904 7873 ft 233 kts 46°
2026-05-08 13:10 22.51396 113.54163 7880 ft 233 kts 46°
2026-05-08 13:11 22.52416 113.55548 7862 ft 234 kts 67°
2026-05-08 13:11 22.52584 113.57272 7860 ft 235 kts 104°
2026-05-08 13:11 22.51902 113.58878 7747 ft 237 kts 120°
2026-05-08 13:11 22.51071 113.60412 7537 ft 234 kts 119°
2026-05-08 13:12 22.50259 113.61937 7305 ft 233 kts 118°
2026-05-08 13:12 22.49468 113.63460 7040 ft 231 kts 118°
2026-05-08 13:12 22.48703 113.64961 6720 ft 230 kts 118°
2026-05-08 13:12 22.47936 113.66476 6457 ft 228 kts 118°
2026-05-08 13:13 22.47178 113.67984 6194 ft 226 kts 117°
2026-05-08 13:13 22.46431 113.69474 5918 ft 225 kts 117°
2026-05-08 13:13 22.45688 113.70953 5648 ft 223 kts 117°
2026-05-08 13:13 22.44951 113.72419 5292 ft 220 kts 117°
2026-05-08 13:14 22.44219 113.73878 4852 ft 220 kts 117°
2026-05-08 13:14 22.43528 113.75316 4533 ft 216 kts 108°
2026-05-08 13:14 22.43439 113.76889 4293 ft 209 kts 71°
2026-05-08 13:14 22.44059 113.78290 4117 ft 208 kts 62°
2026-05-08 13:15 22.44727 113.79673 3906 ft 203 kts 63°
2026-05-08 13:15 22.45360 113.81024 3673 ft 200 kts 64°
2026-05-08 13:15 22.45977 113.82361 3331 ft 199 kts 64°
2026-05-08 13:15 22.46591 113.83704 3019 ft 197 kts 64°
2026-05-08 13:16 22.47187 113.85013 2726 ft 195 kts 64°
2026-05-08 13:16 22.47825 113.86302 2517 ft 192 kts 51°
2026-05-08 13:16 22.48918 113.87044 2338 ft 185 kts 13°
2026-05-08 13:16 22.50196 113.86874 2321 ft 188 kts 343°
2026-05-08 13:17 22.51388 113.86279 2305 ft 188 kts 336°
2026-05-08 13:17 22.52497 113.85623 2086 ft 175 kts 335°
2026-05-08 13:17 22.53528 113.85019 1859 ft 160 kts 336°
2026-05-08 13:17 22.54471 113.84487 1650 ft 146 kts 338°
2026-05-08 13:18 22.55355 113.84003 1468 ft 139 kts 337°
2026-05-08 13:18 22.56215 113.83537 1308 ft 138 kts 336°
2026-05-08 13:18 22.57080 113.83067 1143 ft 137 kts 336°
2026-05-08 13:18 22.57936 113.82598 971 ft 137 kts 335°
2026-05-08 13:19 22.58772 113.82127 804 ft 136 kts 335°
2026-05-08 13:19 22.59624 113.81660 615 ft 134 kts 335°
2026-05-08 13:19 22.60461 113.81221 407 ft 134 kts 334°
2026-05-08 13:19 22.61287 113.80765 282 ft 133 kts 333°
2026-05-08 13:20 22.62112 113.80306 102 ft 131 kts 334°
2026-05-08 13:20 22.62940 113.79870 35 ft 131 kts 332°
2026-05-08 13:20 22.63794 113.79403 277 ft 147 kts 333°
2026-05-08 13:20 22.64787 113.78828 669 ft 181 kts 329°
2026-05-08 13:21 22.65663 113.77837 1616 ft 188 kts 299°
2026-05-08 13:21 22.66077 113.76533 2573 ft 193 kts 287°
2026-05-08 13:21 22.66361 113.75111 3276 ft 195 kts 282°
2026-05-08 13:21 22.66576 113.73632 3732 ft 211 kts 279°
2026-05-08 13:22 22.66740 113.71948 3894 ft 233 kts 275°
2026-05-08 13:22 22.66818 113.70172 3828 ft 236 kts 271°
2026-05-08 13:22 22.66791 113.68414 3868 ft 237 kts 268°
2026-05-08 13:22 22.66456 113.66642 3877 ft 238 kts 240°
2026-05-08 13:23 22.65348 113.65366 3897 ft 235 kts 207°
2026-05-08 13:23 22.63797 113.64945 3904 ft 226 kts 178°
2026-05-08 13:23 22.62218 113.64973 3904 ft 225 kts 176°
2026-05-08 13:23 22.60654 113.65014 3894 ft 226 kts 176°
2026-05-08 13:24 22.59084 113.65046 3894 ft 226 kts 177°
2026-05-08 13:24 22.57502 113.65070 3891 ft 225 kts 177°
2026-05-08 13:24 22.55931 113.65087 3894 ft 225 kts 177°
2026-05-08 13:24 22.54348 113.65102 3898 ft 225 kts 177°
2026-05-08 13:25 22.52770 113.65116 3900 ft 225 kts 178°
2026-05-08 13:25 22.51214 113.65130 3897 ft 224 kts 177°
2026-05-08 13:25 22.49657 113.65306 3887 ft 221 kts 159°
2026-05-08 13:25 22.48334 113.66102 3892 ft 218 kts 135°
2026-05-08 13:26 22.47413 113.67379 3902 ft 216 kts 117°
2026-05-08 13:26 22.46698 113.68814 3818 ft 215 kts 116°
2026-05-08 13:26 22.46002 113.70259 3697 ft 215 kts 116°
2026-05-08 13:26 22.45307 113.71684 3576 ft 215 kts 116°
2026-05-08 13:27 22.44596 113.73119 3457 ft 214 kts 116°
2026-05-08 13:27 22.43896 113.74532 3337 ft 213 kts 113°
2026-05-08 13:27 22.43521 113.76059 3163 ft 210 kts 89°
2026-05-08 13:27 22.43770 113.77582 2924 ft 206 kts 67°
2026-05-08 13:28 22.44391 113.78983 2704 ft 202 kts 63°
2026-05-08 13:28 22.45017 113.80312 2542 ft 199 kts 63°
2026-05-08 13:28 22.45641 113.81647 2319 ft 198 kts 63°
2026-05-08 13:28 22.46260 113.82984 2269 ft 199 kts 64°
2026-05-08 13:29 22.46880 113.84335 2264 ft 202 kts 64°
2026-05-08 13:29 22.47511 113.85719 2265 ft 206 kts 63°
2026-05-08 13:29 22.48405 113.86924 2236 ft 208 kts 30°
2026-05-08 13:29 22.49806 113.87179 2237 ft 205 kts 347°
2026-05-08 13:30 22.51076 113.86578 2262 ft 192 kts 332°
2026-05-08 13:30 22.52218 113.85831 2190 ft 191 kts 332°
2026-05-08 13:30 22.53367 113.85123 1980 ft 190 kts 335°
2026-05-08 13:30 22.54531 113.84463 1705 ft 180 kts 336°
2026-05-08 13:31 22.55610 113.83874 1453 ft 167 kts 336°
2026-05-08 13:31 22.56604 113.83331 1224 ft 154 kts 336°
2026-05-08 13:31 22.57525 113.82827 1018 ft 140 kts 336°
2026-05-08 13:31 22.58377 113.82351 842 ft 136 kts 334°
2026-05-08 13:32 22.59210 113.81871 692 ft 135 kts 335°
2026-05-08 13:32 22.60064 113.81424 487 ft 134 kts 336°
2026-05-08 13:32 22.60901 113.80971 325 ft 134 kts 332°
2026-05-08 13:32 22.61728 113.80521 183 ft 133 kts 334°
2026-05-08 13:33 22.62563 113.80066 64 ft 132 kts 332°
2026-05-08 13:33 22.63366 113.79627 22 ft 121 kts 332°
2026-05-08 13:33 22.63984 113.79286 20 ft 74 kts 332°
2026-05-08 13:33 22.64325 113.79102 20 ft 37 kts 338°
2026-05-08 13:34 22.64537 113.79067 20 ft 21 kts
2026-05-08 13:34 22.64644 113.79102 20 ft 15 kts 53°
2026-05-08 13:34 22.64685 113.79208 20 ft 15 kts 105°
2026-05-08 13:34 22.64604 113.79282 20 ft 15 kts 123°
2026-05-08 13:35 22.64584 113.79380 20 ft 13 kts 143°
2026-05-08 13:35 22.64496 113.79430 20 ft 14 kts 152°
2026-05-08 13:35 22.64403 113.79481 20 ft 15 kts 153°
2026-05-08 13:35 22.64306 113.79534 20 ft 16 kts 153°
2026-05-08 13:36 22.64257 113.79581 20 ft 8 kts 68°
2026-05-08 13:36 22.64285 113.79635 20 ft 5 kts 63°
2026-05-08 13:36 22.64298 113.79660 20 ft 1 kts 63°
2026-05-08 13:36 22.64298 113.79662 20 ft 0 kts 63°